Terug naar catalogus

STARLINK-35014

ActiefCommunicatieVLEO
NORAD 65429·PAYLOAD·🇺🇸 United States

Gelanceerd Aug 31, 2025 vanaf Cape Canaveral Space Force Station

Loading…

Volgende Passages (komende 24 uur)

TLE

VersSource: CelesTrak SupGP

Epoch: Sep 15, 2026, 03:51 UTC

1 65429C 25192AB  26258.16090278 -.00028271  00000+0 -83507-3 0  2586
2 65429  53.1583  70.4127 0001266  89.5408 115.5185 15.34412649    19

Volg STARLINK-35014 in realtime met AllMySat

Download on the App Store